Content
SEND FEEDBACK

Daily
Averages
Monthly
Summary
United States of America

MONTICELLO, INDIANA


Home > North America > United States > Indiana
Elevation: 676 feet     Latitude: 40 44N     Longitude: 086 41W

WEATHER
 
SELECT A DAY
Number of Records: 66,121;   Date Range: 10/28/11 - 9/30/14
 
SHARE

PRINT THIS DATA

[ ← Previous Day ]
WEATHER ALMANAC - JANUARY 3, 2013
[ Next Day → ]
[ °C ]   °F
Weather ElementAverageHighLow
Temperature22.9 °F30.2 °F (1:35 pm)14 °F (12:35 am)
Dewpoint16.6 °F26.6 °F (2:15 pm)6.8 °F (12:35 am)
Humidity76.8 %86 % (9:15 am)68 % (12:55 am)
Barometer30.21 in30.28 in (8:55 pm)30.16 in (12:35 am)
Wind Speed12.2 mph23 mph (6:35 pm)
Wind Gust26.5 mph (6:35 pm)
Weather ElementAverage
Visibility9.6 mi
Wind DirectionWSW (239.9 °)

Weather ElementTotal
Precipitation---
Heating Degree Days42.9 (Base 65)
Averaged from 68 records on January 3, 2013
WEATHER CONDITIONS BREAKOUT
WIND DIRECTION BREAKOUT
WEATHER BY HOUR - JANUARY 3, 2013
[ °C ]   °F
Local TimeTemperatureDewpointHumidityBarometerVisibilityWind DirectionWind SpeedGust SpeedPrecipitationEventsConditions
12:35 AM14.0 °F6.8 °F73 %30.16 in10.0 miSouth (190°)9.2 mphClear
12:55 AM15.8 °F6.8 °F68 %30.17 in10.0 miSSW (210°)10.4 mphClear
1:15 AM14.0 °F6.8 °F73 %30.17 in10.0 miSW (220°)9.2 mphClear
1:35 AM15.8 °F6.8 °F68 %30.16 in10.0 miSSW (210°)9.2 mphClear
1:55 AM15.8 °F6.8 °F68 %30.16 in10.0 miSSW (210°)10.4 mphClear
2:15 AM15.8 °F6.8 °F68 %30.16 in10.0 miSSW (210°)10.4 mphClear
2:35 AM15.8 °F6.8 °F68 %30.16 in10.0 miSSW (210°)9.2 mphClear
2:55 AM14.0 °F6.8 °F73 %30.16 in10.0 miSW (220°)9.2 mphClear
3:15 AM15.8 °F6.8 °F68 %30.16 in10.0 miSSW (210°)9.2 mphClear
3:35 AM15.8 °F6.8 °F68 %30.16 in10.0 miSW (220°)9.2 mphClear
3:55 AM15.8 °F6.8 °F68 %30.16 in10.0 miSSW (210°)10.4 mphScattered Clouds
4:15 AM15.8 °F6.8 °F68 %30.16 in10.0 miSSW (210°)10.4 mphMostly Cloudy
4:35 AM17.6 °F8.6 °F68 %30.16 in10.0 miSW (220°)9.2 mphOvercast
4:55 AM17.6 °F8.6 °F68 %30.16 in10.0 miSW (220°)11.5 mphOvercast
5:15 AM19.4 °F10.4 °F68 %30.16 in10.0 miSW (220°)12.7 mphOvercast
5:35 AM19.4 °F10.4 °F68 %30.16 in10.0 miSW (230°)12.7 mphOvercast
5:55 AM19.4 °F10.4 °F68 %30.16 in10.0 miSW (230°)10.4 mphOvercast
6:15 AM19.4 °F10.4 °F68 %30.16 in10.0 miWSW (240°)9.2 mphOvercast
6:35 AM19.4 °F12.2 °F74 %30.17 in10.0 miSW (220°)10.4 mphOvercast
6:55 AM19.4 °F12.2 °F74 %30.17 in10.0 miSW (220°)10.4 mphOvercast
7:15 AM21.2 °F14.0 °F74 %30.16 in10.0 miSW (220°)10.4 mphOvercast
7:35 AM21.2 °F14.0 °F74 %30.16 in10.0 miSW (220°)10.4 mphOvercast
8:15 AM19.4 °F14.0 °F80 %30.18 in10.0 miWSW (240°)9.2 mphMostly Cloudy
8:35 AM21.2 °F14.0 °F74 %30.17 in10.0 miSW (230°)11.5 mphOvercast
8:55 AM21.2 °F15.8 °F80 %30.18 in10.0 miSW (230°)10.4 mphOvercast
9:15 AM21.2 °F17.6 °F86 %30.17 in10.0 miSW (220°)11.5 mphOvercast
9:55 AM23.0 °F17.6 °F80 %30.19 in10.0 miSW (230°)10.4 mphOvercast
10:15 AM23.0 °F19.4 °F86 %30.20 in10.0 miSW (220°)15.0 mphOvercast
10:35 AM23.0 °F17.6 °F80 %30.21 in10.0 miSW (230°)12.7 mphOvercast
10:55 AM23.0 °F19.4 °F86 %30.21 in10.0 miSW (230°)13.8 mphOvercast
11:15 AM24.8 °F19.4 °F80 %30.21 in10.0 miWSW (240°)12.7 mphOvercast
11:35 AM24.8 °F19.4 °F80 %30.20 in7.0 miSW (220°)11.5 mphMostly Cloudy
11:55 AM26.6 °F21.2 °F80 %30.20 in7.0 miSW (230°)11.5 mphScattered Clouds
12:15 PM28.4 °F21.2 °F74 %30.21 in7.0 miWSW (250°)12.7 mph16.1 mphMostly Cloudy
12:35 PM28.4 °F23.0 °F80 %30.20 in7.0 miWest (260°)15.0 mphMostly Cloudy
12:55 PM28.4 °F23.0 °F80 %30.20 in10.0 miWest (260°)13.8 mphOvercast
1:15 PM28.4 °F23.0 °F80 %30.19 in7.0 miWSW (250°)13.8 mphOvercast
1:35 PM30.2 °F24.8 °F80 %30.19 in7.0 miWSW (250°)15.0 mphOvercast
1:55 PM30.2 °F24.8 °F80 %30.18 in7.0 miWSW (250°)16.1 mphOvercast
2:15 PM30.2 °F26.6 °F86 %30.19 in7.0 miWSW (250°)13.8 mph18.4 mphOvercast
2:35 PM30.2 °F24.8 °F80 %30.19 in10.0 miWest (260°)15.0 mphOvercast
2:55 PM30.2 °F26.6 °F86 %30.19 in7.0 miWSW (250°)15.0 mphOvercast
3:15 PM30.2 °F26.6 °F86 %30.20 in10.0 miWSW (250°)16.1 mph24.2 mphOvercast
3:35 PM30.2 °F26.6 °F86 %30.21 in10.0 miWest (260°)17.3 mphOvercast
3:55 PM30.2 °F26.6 °F86 %30.21 in10.0 miWSW (250°)16.1 mphOvercast
4:15 PM30.2 °F26.6 °F86 %30.22 in10.0 miWest (260°)15.0 mphOvercast
4:35 PM30.2 °F24.8 °F80 %30.22 in10.0 miWest (260°)16.1 mph21.9 mphOvercast
4:55 PM30.2 °F24.8 °F80 %30.23 in10.0 miWest (260°)15.0 mphOvercast
5:15 PM30.2 °F23.0 °F75 %30.23 in10.0 miWest (260°)13.8 mph20.7 mphOvercast
5:55 PM30.2 °F23.0 °F75 %30.24 in10.0 miWest (260°)16.1 mph20.7 mphOvercast
6:15 PM30.2 °F23.0 °F75 %30.24 in10.0 miWSW (250°)15.0 mphOvercast
6:35 PM30.2 °F21.2 °F69 %30.24 in10.0 miWest (260°)23.0 mph26.5 mphOvercast
6:55 PM28.4 °F21.2 °F74 %30.25 in10.0 miWest (270°)16.1 mphMostly Cloudy
7:15 PM26.6 °F21.2 °F80 %30.25 in10.0 miWest (270°)15.0 mphScattered Clouds
7:35 PM26.6 °F19.4 °F74 %30.26 in10.0 miWest (260°)13.8 mphClear
7:55 PM26.6 °F19.4 °F74 %30.27 in10.0 miWest (260°)13.8 mph17.3 mphClear
8:15 PM24.8 °F19.4 °F80 %30.27 in10.0 miWest (260°)12.7 mphClear
8:35 PM24.8 °F19.4 °F80 %30.27 in10.0 miWest (260°)11.5 mphClear
8:55 PM23.0 °F17.6 °F80 %30.28 in10.0 miWest (270°)9.2 mphClear
9:15 PM23.0 °F17.6 °F80 %30.28 in10.0 miWest (270°)10.4 mphClear
9:35 PM21.2 °F15.8 °F80 %30.28 in10.0 miWest (260°)10.4 mphClear
9:55 PM21.2 °F15.8 °F80 %30.28 in10.0 miWest (260°)10.4 mphClear
10:15 PM21.2 °F15.8 °F80 %30.28 in10.0 miWest (260°)9.2 mphClear
10:35 PM21.2 °F15.8 °F80 %30.28 in10.0 miWest (260°)11.5 mphClear
10:55 PM21.2 °F15.8 °F80 %30.28 in10.0 miWSW (250°)11.5 mphClear
11:15 PM19.4 °F14.0 °F80 %30.28 in10.0 miWest (260°)9.2 mphClear
11:35 PM17.6 °F14.0 °F86 %30.28 in10.0 miWSW (250°)8.1 mphClear
11:55 PM17.6 °F14.0 °F86 %30.28 in10.0 miWSW (250°)9.2 mphClear
Hourly data recorded from KGGP, located miles away from Monticello, Indiana







STORIES FROM OUR PARTNERS